User: anonymous   Login
Location: Asheville, NC
(35.6000°N, 82.5500°W)
Time: 14:47:31
(UTC-05:00)
Language:

SEEDS - Orbit

View from above orbital plane
View from above orbital plane
View from above satellite
View from above satellite

Ground track
Ground track

The orbit data is extracted from the following two-line orbital elements,

1 32791U 08021J   18017.02023537  .00000368  00000-0  43083-4 0  9991
2 32791  97.5464  41.3601 0014035 156.3578 203.8289 14.90446162526992
Epoch (UTC): 17 January 2018 00:29:08
Eccentricity: 0.0014035
inclination: 97.5464°
perigee height: 587 km
apogee height: 606 km
right ascension of ascending node: 41.3601°
argument of perigee: 156.3578°
revolutions per day: 14.90446162
mean anomaly at epoch: 203.8289°
orbit number at epoch: 52699

The dashed part of the orbit path shows where the satellite is in the earth's shadow,  

DLR